TimePDT,TemperatureF,Dew PointF,Humidity,Sea Level PressureIn,VisibilityMPH,Wind Direction,Wind SpeedMPH,Gust SpeedMPH,PrecipitationIn,Events,Conditions,WindDirDegrees,DateUTC
12:53 AM,69.1,55.9,63,29.96,10.0,Calm,Calm,-,N/A,,Clear,0,2013-08-05 07:53:00
1:53 AM,66.9,55.0,66,29.96,10.0,Calm,Calm,-,N/A,,Clear,0,2013-08-05 08:53:00
2:53 AM,64.9,55.0,70,29.97,10.0,Calm,Calm,-,N/A,,Clear,0,2013-08-05 09:53:00
3:53 AM,63.0,55.0,75,29.97,10.0,Calm,Calm,-,N/A,,Clear,0,2013-08-05 10:53:00
4:53 AM,62.1,55.0,78,29.97,10.0,Calm,Calm,-,N/A,,Clear,0,2013-08-05 11:53:00
5:53 AM,61.0,54.0,78,29.98,10.0,Calm,Calm,-,N/A,,Clear,0,2013-08-05 12:53:00
6:53 AM,61.0,54.0,78,29.99,10.0,Calm,Calm,-,N/A,,Clear,0,2013-08-05 13:53:00
7:53 AM,63.0,55.0,75,30.00,10.0,Calm,Calm,-,N/A,,Clear,0,2013-08-05 14:53:00
8:53 AM,66.0,55.0,68,30.00,10.0,Calm,Calm,-,N/A,,Clear,0,2013-08-05 15:53:00
9:53 AM,70.0,55.0,59,30.00,10.0,Calm,Calm,-,N/A,,Clear,0,2013-08-05 16:53:00
10:53 AM,75.0,55.9,51,29.99,10.0,Calm,Calm,-,N/A,,Clear,0,2013-08-05 17:53:00
11:53 AM,80.1,57.0,45,29.98,10.0,Variable,4.6,-,N/A,,Clear,0,2013-08-05 18:53:00
12:53 PM,86.0,55.0,35,29.96,10.0,NNE,8.1,-,N/A,,Clear,20,2013-08-05 19:53:00
1:53 PM,89.1,55.0,31,29.94,10.0,North,6.9,-,N/A,,Clear,360,2013-08-05 20:53:00
2:53 PM,91.9,53.1,27,29.91,10.0,Calm,Calm,-,N/A,,Clear,0,2013-08-05 21:53:00
3:53 PM,93.0,54.0,27,29.89,10.0,Variable,6.9,-,N/A,,Clear,0,2013-08-05 22:53:00
4:53 PM,93.0,52.0,25,29.87,10.0,Variable,6.9,-,N/A,,Clear,0,2013-08-05 23:53:00
5:53 PM,91.9,51.1,25,29.86,10.0,WNW,9.2,-,N/A,,Clear,300,2013-08-06 00:53:00
6:53 PM,91.9,55.9,30,29.86,10.0,NW,9.2,-,N/A,,Clear,320,2013-08-06 01:53:00
7:53 PM,87.1,57.0,36,29.88,10.0,NW,10.4,-,N/A,,Clear,320,2013-08-06 02:53:00
8:53 PM,82.9,57.0,41,29.89,10.0,NW,4.6,-,N/A,,Clear,320,2013-08-06 03:53:00
9:53 PM,81.0,57.9,45,29.91,10.0,Calm,Calm,-,N/A,,Clear,0,2013-08-06 04:53:00
10:53 PM,75.9,57.9,54,29.92,10.0,Calm,Calm,-,N/A,,Clear,0,2013-08-06 05:53:00
11:53 PM,73.0,57.9,59,29.92,10.0,Calm,Calm,-,N/A,,Clear,0,2013-08-06 06:53:00